Weather History for K7BM - May, 2013

Change the Weather History Date:

Friday, May 17, 2013

  Actual Average Record
Temperature  
Mean Temperature 59 °F -  
Max Temperature 68 °F - - ()
Min Temperature 50 °F - - ()
Degree Days  
Heating Degree Days 6    
Growing Degree Days 9 (Base 50)    
Moisture  
Dew Point 5 °F    
Average Humidity 14    
Maximum Humidity 31    
Minimum Humidity 4    
Precipitation  
Precipitation 0.00 in - - ()
Sea Level Pressure  
Sea Level Pressure 30.19 in    
Wind  
Wind Speed 8 mph (WSW)    
Max Wind Speed 16 mph    
Max Gust Speed 28 mph    
Visibility 10 miles    
Events      
T = Trace of Precipitation, MM = Missing Value Source: NWS Daily Summary

Daily Weather History Graph

Daily Weather History Graph

Search for Another Location

Airport or City:

Trip Planner

Search our weather history database for the weather conditions in past years. The results will help you decide how hot, cold, wet, or windy it might be!

Date:

Astronomy

May. 17, 2013 Rise Set
Actual Time 5:50 AM MDT 8:12 PM MDT
Civil Twilight 5:20 AM MDT 8:42 PM MDT
Nautical Twilight 4:43 AM MDT 9:19 PM MDT
Astronomical Twilight 4:02 AM MDT 10:01 PM MDT
Moon 12:24 PM MDT (5/17) 1:07 AM MDT (5/17)
Length of Visible Light 15h 22m
Length of Day
14h 21m
Waxing Crescent, 46% of the Moon is Illuminated
May 17
Waxing Crescent
May 17
First Quarter
May 24
Full
May 31
Last Quarter
Jun 8
New

Hourly Weather History & Observations

Time (MDT) Temp. Dew Point Humidity Pressure Visibility Wind Dir Wind Speed Gust Speed Precip Events Conditions
12:17 AM 53.6 °F 17.6 °F 24% 30.20 in 10.0 mi WSW 10.4 mph - N/A   Clear
12:37 AM 55.4 °F 15.8 °F 21% 30.20 in 10.0 mi WSW 11.5 mph - N/A   Clear
12:57 AM 53.6 °F 14.0 °F 21% 30.19 in 10.0 mi West 10.4 mph - N/A   Clear
1:17 AM 53.6 °F 14.0 °F 21% 30.19 in 10.0 mi West 10.4 mph - N/A   Clear
1:37 AM 53.6 °F 12.2 °F 19% 30.19 in 10.0 mi West 10.4 mph - N/A   Clear
1:57 AM 53.6 °F 12.2 °F 19% 30.19 in 10.0 mi West 10.4 mph - N/A   Clear
2:17 AM 53.6 °F 12.2 °F 19% 30.18 in 10.0 mi West 8.1 mph - N/A   Clear
2:36 AM 51.8 °F 14.0 °F 22% 30.18 in 10.0 mi West 8.1 mph - N/A   Clear
2:57 AM 53.6 °F 12.2 °F 19% 30.18 in 10.0 mi West 10.4 mph - N/A   Clear
3:17 AM 53.6 °F 12.2 °F 19% 30.18 in 10.0 mi West 5.8 mph - N/A   Clear
3:36 AM 53.6 °F 10.4 °F 18% 30.17 in 10.0 mi WSW 5.8 mph - N/A   Clear
3:56 AM 53.6 °F 12.2 °F 19% 30.18 in 10.0 mi SSW 5.8 mph - N/A   Clear
4:17 AM 51.8 °F 14.0 °F 22% 30.18 in 10.0 mi West 5.8 mph - N/A   Clear
4:36 AM 53.6 °F 12.2 °F 19% 30.18 in 10.0 mi West 3.5 mph - N/A   Clear
4:56 AM 51.8 °F 14.0 °F 22% 30.19 in 10.0 mi WNW 3.5 mph - N/A   Clear
5:16 AM 51.8 °F 14.0 °F 22% 30.19 in 10.0 mi WSW 3.5 mph - N/A   Clear
5:37 AM 51.8 °F 12.2 °F 21% 30.19 in 10.0 mi West 6.9 mph - N/A   Clear
6:17 AM 50.0 °F 14.0 °F 24% 30.21 in 10.0 mi Calm Calm - N/A   Clear
6:37 AM 50.0 °F 10.4 °F 20% 30.22 in 10.0 mi Calm Calm - N/A   Clear
6:57 AM 51.8 °F 10.4 °F 19% 30.22 in 10.0 mi Calm Calm - N/A   Clear
7:17 AM 51.8 °F 10.4 °F 19% 30.23 in 10.0 mi Calm Calm - N/A   Clear
7:37 AM 51.8 °F 12.2 °F 21% 30.23 in 10.0 mi Calm Calm - N/A   Clear
7:57 AM 53.6 °F 12.2 °F 19% 30.23 in 10.0 mi NW 5.8 mph - N/A   Clear
8:17 AM 53.6 °F 15.8 °F 22% 30.22 in 10.0 mi Calm Calm - N/A   Clear
8:37 AM 53.6 °F 14.0 °F 21% 30.22 in 10.0 mi North 6.9 mph - N/A   Clear
8:57 AM 53.6 °F 23.0 °F 30% 30.22 in 10.0 mi SE 4.6 mph - N/A   Clear
9:17 AM 55.4 °F 19.4 °F 25% 30.22 in 10.0 mi Calm Calm - N/A   Clear
9:36 AM 55.4 °F 24.8 °F 31% 30.22 in 10.0 mi ESE 8.1 mph - N/A   Clear
9:57 AM 59.0 °F 21.2 °F 23% 30.22 in 10.0 mi SE 6.9 mph - N/A   Clear
10:17 AM 60.8 °F 23.0 °F 23% 30.22 in 10.0 mi Calm Calm - N/A   Clear
10:36 AM 60.8 °F 17.6 °F 19% 30.22 in 10.0 mi SW 9.2 mph - N/A   Clear
10:57 AM 60.8 °F 3.2 °F 10% 30.22 in 10.0 mi SW 12.7 mph 26.5 mph N/A   Clear
11:17 AM 59.0 °F -4.0 °F 8% 30.22 in 10.0 mi SW 11.5 mph 26.5 mph N/A   Clear
11:37 AM 59.0 °F -5.8 °F 7% 30.21 in 10.0 mi WSW 16.1 mph 27.6 mph N/A   Clear
11:56 AM 60.8 °F -4.0 °F 7% 30.21 in 10.0 mi West 6.9 mph 25.3 mph N/A   Clear
12:17 PM 62.6 °F -7.6 °F 6% 30.20 in 10.0 mi West 13.8 mph 21.9 mph N/A   Clear
12:37 PM 62.6 °F -7.6 °F 6% 30.20 in 10.0 mi WNW 13.8 mph 24.2 mph N/A   Clear
1:17 PM 64.4 °F -5.8 °F 6% 30.19 in 10.0 mi West 8.1 mph 17.3 mph N/A   Clear
1:37 PM 64.4 °F -4.0 °F 6% 30.17 in 10.0 mi South 11.5 mph 23.0 mph N/A   Clear
1:57 PM 66.2 °F -0.4 °F 7% 30.17 in 10.0 mi SSE 13.8 mph 19.6 mph N/A   Clear
2:17 PM 64.4 °F -7.6 °F 5% 30.17 in 10.0 mi SSW 6.9 mph 23.0 mph N/A   Clear
2:37 PM 66.2 °F -7.6 °F 5% 30.17 in 10.0 mi SW 5.8 mph 20.7 mph N/A   Clear
2:57 PM 66.2 °F -9.4 °F 5% 30.16 in 10.0 mi West 10.4 mph 24.2 mph N/A   Clear
3:16 PM 66.2 °F -7.6 °F 5% 30.16 in 10.0 mi SSE 9.2 mph 16.1 mph N/A   Clear
3:37 PM 64.4 °F -9.4 °F 5% 30.15 in 10.0 mi NW 6.9 mph - N/A   Clear
3:57 PM 64.4 °F -7.6 °F 5% 30.15 in 10.0 mi Calm Calm - N/A   Clear
4:17 PM 68.0 °F -0.4 °F 7% 30.14 in 10.0 mi East 5.8 mph - N/A   Clear
4:37 PM 66.2 °F -7.6 °F 5% 30.13 in 10.0 mi West 9.2 mph 17.3 mph N/A   Clear
4:57 PM 64.4 °F -9.4 °F 5% 30.13 in 10.0 mi WNW 6.9 mph 21.9 mph N/A   Clear
5:17 PM 64.4 °F -7.6 °F 5% 30.13 in 10.0 mi SSW 13.8 mph 17.3 mph N/A   Clear
5:37 PM 64.4 °F -13.0 °F 4% 30.13 in 10.0 mi South 13.8 mph 27.6 mph N/A   Clear
5:57 PM 64.4 °F -14.8 °F 4% 30.13 in 10.0 mi SSW 9.2 mph 20.7 mph N/A   Clear
6:17 PM 64.4 °F -14.8 °F 4% 30.13 in 10.0 mi West 6.9 mph 16.1 mph N/A   Clear
6:37 PM 62.6 °F -13.0 °F 4% 30.13 in 10.0 mi South 10.4 mph 23.0 mph N/A   Clear
6:57 PM 62.6 °F -5.8 °F 6% 30.14 in 10.0 mi SSW 5.8 mph - N/A   Clear
7:17 PM 60.8 °F -7.6 °F 6% 30.14 in 10.0 mi SW 9.2 mph 19.6 mph N/A   Clear
7:37 PM 60.8 °F -7.6 °F 6% 30.15 in 10.0 mi SW 16.1 mph 24.2 mph N/A   Clear
7:57 PM 60.8 °F -7.6 °F 6% 30.15 in 10.0 mi South 10.4 mph 19.6 mph N/A   Clear
8:17 PM 59.0 °F -0.4 °F 9% 30.17 in 10.0 mi WNW 10.4 mph 17.3 mph N/A   Clear
8:37 PM 55.4 °F 8.6 °F 15% 30.18 in 10.0 mi NW 8.1 mph - N/A   Clear
8:56 PM 55.4 °F 10.4 °F 17% 30.19 in 10.0 mi West 8.1 mph - N/A   Clear
9:16 PM 55.4 °F 10.4 °F 17% 30.20 in 10.0 mi West 10.4 mph 17.3 mph N/A   Clear
9:37 PM 53.6 °F 10.4 °F 18% 30.20 in 10.0 mi West 10.4 mph - N/A   Clear
9:57 PM 53.6 °F 10.4 °F 18% 30.21 in 10.0 mi West 6.9 mph - N/A   Clear
10:17 PM 53.6 °F 10.4 °F 18% 30.21 in 10.0 mi WSW 6.9 mph - N/A   Clear
10:37 PM 51.8 °F 8.6 °F 18% 30.20 in 10.0 mi WSW 9.2 mph - N/A   Clear
10:57 PM 53.6 °F 5.0 °F 14% 30.20 in 10.0 mi WSW 8.1 mph - N/A   Clear
11:16 PM 53.6 °F 3.2 °F 13% 30.19 in 10.0 mi West 8.1 mph - N/A   Clear
11:36 PM 51.8 °F 3.2 °F 14% 30.19 in 10.0 mi WSW 8.1 mph - N/A   Clear
11:57 PM 51.8 °F 3.2 °F 14% 30.18 in 10.0 mi West 4.6 mph - N/A   Clear